Regional Weather Roundup
Issued by NWS

Current Version | Previous Version | Text Only | Print | Product List | Glossary On
Versions: 1 2 3 4 5 6 7 8 9 10 11 12 13 14 15 16 17 18 19 20 21 22 23 24 25 26 27 28 29 30 31 32 33 34 35 36 37 38 39 40 41 42 43 44 45 46 47 48 49 50
000
ASUS44 KOUN 272110
RWROK

WEATHER ROUNDUP FOR OKLAHOMA
NATIONAL WEATHER SERVICE NORMAN OK
400 PM CDT WED JUL 27 2016

NOTE: "FAIR" INDICATES FEW OR NO CLOUDS BELOW 12,000 FEET WITH NO
      SIGNIFICANT WEATHER AND/OR OBSTRUCTIONS TO VISIBILITY.

OKZ001>007-009>012-014-015-017-272200-
NORTHWEST OKLAHOMA AND THE PANHANDLE

CITY           SKY/WX    TMP DP  RH WIND       PRES   REMARKS
GAGE           SUNNY     98  59  27 VRB5      29.96F HX  98
GUYMON         SUNNY     95  61  32 S6        29.99F HX  95
ENID/WOODRING  PTSUNNY  100  66  32 N8        29.89  HX 104
$$

OKZ016-021>023-033>039-044-045-272200-
SOUTHWEST OKLAHOMA

CITY           SKY/WX    TMP DP  RH WIND       PRES   REMARKS
LAWTON/REGL    SUNNY     99  65  32 VRB5      29.90F HX 102
LAWTON/FT SILL SUNNY     97  70  41 VRB2      29.89F HX 103
FREDERICK      SUNNY     98  66  34 W6        29.87F HX 101
CLINTON        MOSUNNY   96  63  33 N7        29.96F HX  97
HOBART         PTSUNNY   98  66  34 E9        29.93S HX 101
ALTUS AFB      SUNNY     95  65  36 VRB1      29.91F HX  98
$$

OKZ018>020-024>031-272200-
CENTRAL OKLAHOMA

CITY           SKY/WX    TMP DP  RH WIND       PRES   REMARKS
OKLAHOMA CITY  PTSUNNY   93  71  48 CALM      29.92F HX 100
OKC/WILEY POST CLOUDY    92  71  50 S5        29.92F HX  98
OKC/TINKER AFB MOSUNNY   91  72  53 NE5       29.92F HX  99
STILLWATER     SUNNY     93  70  46 NE8       29.92F HX  99
GUTHRIE        MOSUNNY   92  72  51 VRB7      29.91F HX  99
$$

OKZ008-013-054>072-272200-
NORTHEAST OKLAHOMA

CITY           SKY/WX    TMP DP  RH WIND       PRES   REMARKS
TULSA          CLOUDY    92  75  57 SE6       29.89F HX 103
TULSA/JONES    CLOUDY    93  73  52 VRB7      29.90F HX 102
PONCA CITY     MOSUNNY   94  71  47 NE5       29.91F HX 101
BARTLESVILLE   CLOUDY    87  74  64 NE5       29.93F HX  95
MUSKOGEE       PTSUNNY   90  74  59 NE6       29.92F HX  99
$$

OKZ032-040>043-046>053-073>077-272200-
SOUTH CENTRAL/SOUTHEAST OKLAHOMA

CITY           SKY/WX    TMP DP  RH WIND       PRES   REMARKS
ARDMORE/DWNTWN CLOUDY    79  72  78 SE3       29.91F
MCALESTER      CLOUDY    83  73  72 CALM      29.93F
$$





USA.gov is the U.S. government's official web portal to all federal, state and local government web resources and services.